Location: Ferchesar
(52.6477°N, 12.4298°E)
Time: 21:35:34
(UTC+01:00)

Altair - All Passes

Search period start: 03 December 2021 00:00
Search period end: 13 December 2021 00:00
Orbit: 1502 x 1682 km, 47.2° (Epoch: 03 December)

Date Brightness Start Highest point End Pass type
(mag) Time Alt. Az. Time Alt. Az. Time Alt. Az.
03 Dec - 14:47:02 10° S 14:54:13 25° SE 15:01:13 10° E daylight
03 Dec - 16:48:22 10° SW 16:57:22 51° SSE 17:06:08 10° E visible
03 Dec - 18:52:07 10° W 19:01:18 64° S 19:10:18 10° ESE visible
03 Dec - 20:56:29 10° W 21:05:07 47° SSW 21:13:41 10° SE visible
03 Dec - 23:01:53 10° W 23:07:59 20° SW 23:14:05 10° S visible
04 Dec - 14:22:17 10° S 14:29:11 23° SE 14:35:56 10° E daylight
04 Dec - 16:23:17 10° SW 16:32:16 49° SSE 16:41:00 10° E visible
04 Dec - 18:26:58 10° WSW 18:36:10 64° S 18:45:11 10° ESE visible
04 Dec - 20:31:19 10° W 20:40:02 48° SSW 20:48:40 10° SE visible
04 Dec - 22:36:32 10° W 22:42:58 22° SW 22:49:25 10° S visible
05 Dec - 13:57:33 10° S 14:04:10 21° SE 14:10:38 10° E daylight
05 Dec - 15:58:13 10° SW 16:07:09 48° SSE 16:15:51 10° E daylight
05 Dec - 18:01:48 10° WSW 18:11:02 64° S 18:20:03 10° E visible
05 Dec - 20:06:08 10° W 20:14:56 50° SSW 20:23:38 10° SE visible
05 Dec - 22:11:13 10° W 22:17:59 24° SW 22:24:43 10° S visible
06 Dec - 13:32:53 10° S 13:39:09 20° SE 13:45:17 10° E daylight
06 Dec - 15:33:10 10° SW 15:42:04 46° SSE 15:50:42 10° E daylight
06 Dec - 17:36:39 10° WSW 17:45:55 64° S 17:54:56 10° E visible
06 Dec - 19:40:58 10° W 19:49:51 52° SSW 19:58:36 10° SE visible
06 Dec - 21:45:55 10° W 21:52:57 25° SW 21:59:58 10° S visible
07 Dec - 13:08:16 10° S 13:14:08 18° SE 13:19:55 10° E daylight
07 Dec - 15:08:08 10° SW 15:16:58 44° SSE 15:25:33 10° E daylight
07 Dec - 17:11:29 10° WSW 17:20:47 63° S 17:29:49 10° E visible
07 Dec - 19:15:48 10° W 19:24:45 54° SSW 19:33:33 10° SE visible
07 Dec - 21:20:39 10° W 21:27:56 27° SW 21:35:11 10° SSE visible
08 Dec - 12:43:43 10° SSE 12:49:08 17° SE 12:54:28 10° E daylight
08 Dec - 14:43:06 10° SW 14:51:53 42° SSE 15:00:24 10° E daylight
08 Dec - 16:46:20 10° WSW 16:55:39 63° S 17:04:41 10° E visible
08 Dec - 18:50:37 10° W 18:59:38 56° SSW 19:08:30 10° ESE visible
08 Dec - 20:55:25 10° W 21:02:55 29° SW 21:10:22 10° SSE visible
09 Dec - 12:19:16 10° SSE 12:24:09 15° SE 12:28:57 10° E daylight
09 Dec - 14:18:06 10° SSW 14:26:48 40° SSE 14:35:14 10° E daylight
09 Dec - 16:21:12 10° WSW 16:30:31 62° S 16:39:34 10° E visible
09 Dec - 18:25:27 10° W 18:34:32 57° SSW 18:43:26 10° ESE visible
09 Dec - 20:30:10 10° W 20:37:53 31° SW 20:45:31 10° SSE visible
10 Dec - 11:54:56 10° SSE 11:59:09 14° SE 12:03:19 10° E daylight
10 Dec - 13:53:06 10° SSW 14:01:43 38° SSE 14:10:05 10° E daylight
10 Dec - 15:56:03 10° WSW 16:05:24 61° S 16:14:26 10° E daylight
10 Dec - 18:00:16 10° W 18:09:26 59° SSW 18:18:21 10° ESE visible
10 Dec - 20:04:56 10° W 20:12:51 33° SW 20:20:40 10° SSE visible
11 Dec - 11:30:49 10° SE 11:34:10 12° SE 11:37:30 10° ESE daylight
11 Dec - 13:28:08 10° SSW 13:36:39 36° SE 13:44:54 10° E daylight
11 Dec - 15:30:54 10° WSW 15:40:15 60° SSE 15:49:19 10° E daylight
11 Dec - 17:35:06 10° W 17:44:18 60° SSW 17:53:16 10° ESE visible
11 Dec - 19:39:43 10° W 19:47:48 35° SW 19:55:47 10° SSE visible
11 Dec - 21:47:56 10° WSW 21:50:05 11° WSW 21:52:14 10° SW visible
12 Dec - 11:07:06 10° SE 11:09:11 11° ESE 11:11:16 10° ESE daylight
12 Dec - 13:03:10 10° SSW 13:11:34 34° SE 13:19:43 10° E daylight
12 Dec - 15:05:46 10° WSW 15:15:08 59° SSE 15:24:11 10° E daylight
12 Dec - 17:09:56 10° W 17:19:11 61° S 17:28:11 10° ESE visible
12 Dec - 19:14:30 10° W 19:22:45 37° SW 19:30:52 10° SSE visible
12 Dec - 21:21:46 10° WSW 21:25:08 12° SW 21:28:30 10° SSW visible
